KE9LZ Weather Reports


time (UTC)temp
F
wind
direction
speed
knots
gust
knots
rain 1hr
in
rain 24hr
in
rain mn
in
humidity
%
barometer
mb
20260510074003 39 143 1.7 1.7 0.00 0.00 0.00 67 1019.1
20260510073002 40 149 1.7 1.7 0.00 0.00 0.00 64 1019.1
20260510072003 41 107 0.0 1.7 0.00 0.00 0.00 62 1019.0
20260510070003 40 131 0.9 1.7 0.00 0.00 0.00 61 1018.7
20260510065003 40 129 1.7 2.6 0.00 0.00 0.00 60 1018.5
20260510064003 41 108 2.6 2.6 0.00 0.00 0.00 56 1018.6
20260510063003 41 132 1.7 2.6 0.00 0.00 0.00 55 1018.6
20260510062003 42 126 0.0 1.7 0.00 0.00 0.00 51 1018.5
20260510061003 43 106 0.9 2.6 0.00 0.00 0.00 51 1018.5
20260510055003 44 23 1.7 2.6 0.00 0.00 0.00 45 1018.3
20260510054003 45 39 1.7 7.0 0.00 0.00 0.00 44 1018.3
20260510053003 45 36 2.6 6.1 0.00 0.00 0.00 44 1018.1
20260510052002 45 42 1.7 4.3 0.00 0.00 0.00 45 1018.1
20260510051003 45 98 1.7 4.3 0.00 0.00 0.00 44 1017.6
20260510050002 46 49 2.6 6.1 0.00 0.00 0.00 43 1017.6
20260510045003 46 68 1.7 6.1 0.00 0.00 0.00 44 1017.3
20260510044003 46 34 2.6 5.2 0.00 0.00 0.00 43 1017.6
20260510043002 46 41 2.6 4.3 0.00 0.00 0.00 44 1017.1
20260510042002 47 85 2.6 5.2 0.00 0.00 0.00 42 1017.0
20260510040003 48 40 2.6 6.1 0.00 0.00 0.00 40 1016.9
20260510035003 48 29 2.6 6.1 0.00 0.00 0.00 39 1016.7
20260510034002 49 50 4.3 7.0 0.00 0.00 0.00 38 1016.8
20260510033003 49 36 2.6 7.8 0.00 0.00 0.00 39 1016.6
20260510032003 49 45 5.2 7.8 0.00 0.00 0.00 38 1016.5
20260510031003 49 36 4.3 6.1 0.00 0.00 0.00 38 1016.4
20260510030003 50 40 4.3 12.2 0.00 0.00 0.00 38 1016.5
20260510025003 50 358 8.7 13.0 0.00 0.00 0.00 37 1016.3
20260510024003 50 25 4.3 12.2 0.00 0.00 0.00 39 1016.3
20260510023002 51 17 4.3 10.4 0.00 0.00 0.00 39 1016.1
20260510022003 51 13 8.7 17.4 0.00 0.00 0.00 38 1016.2
20260510021003 51 357 7.8 17.4 0.00 0.00 0.00 38 1015.8
20260510020003 52 348 7.0 14.8 0.00 0.00 0.00 39 1015.5
20260510015003 53 313 7.0 19.1 0.00 0.00 0.00 38 1015.2
20260510014003 54 352 6.1 15.6 0.00 0.00 0.00 37 1014.6
20260510013003 54 350 10.4 20.0 0.00 0.00 0.00 35 1014.1
20260510012003 55 9 7.8 17.4 0.00 0.00 0.00 34 1013.6
20260510011003 55 17 6.1 13.0 0.00 0.00 0.00 34 1013.5
20260510010003 56 11 6.1 11.3 0.00 0.00 0.00 33 1013.2
20260510005003 56 345 5.2 11.3 0.00 0.00 0.00 32 1012.9
20260510004003 57 1 5.2 14.8 0.00 0.00 0.00 31 1012.8
20260510003003 58 337 7.8 18.2 0.00 0.00 0.00 31 1012.5
20260510002003 58 338 7.8 14.8 0.00 0.00 0.00 30 1012.5
20260510001003 59 17 5.2 15.6 0.00 0.00 0.00 31 1012.3
20260510000003 59 336 4.3 13.9 0.00 0.00 0.00 30 1011.9
20260509235003 59 317 5.2 13.9 0.00 0.00 0.00 30 1011.8
20260509234002 60 338 8.7 18.2 0.00 0.00 0.00 29 1011.4
20260509233003 60 18 4.3 13.9 0.00 0.00 0.00 29 1011.1
20260509232003 61 353 7.0 11.3 0.00 0.00 0.00 28 1011.3
20260509225003 59 310 7.8 18.2 0.00 0.00 0.00 30 1010.7
20260509224003 61 307 9.6 20.0 0.00 0.00 0.00 28 1010.6
20260509223003 60 310 4.3 13.9 0.00 0.00 0.00 30 1010.4
20260509222004 59 285 8.7 18.2 0.00 0.00 0.00 30 1010.4
20260509221003 60 303 6.1 13.0 0.00 0.00 0.00 31 1010.1
20260509220003 60 337 7.8 13.0 0.00 0.00 0.00 32 1010.0
20260509214003 61 323 6.1 15.6 0.00 0.00 0.00 32 1009.8
20260509213003 61 294 7.8 18.2 0.00 0.00 0.00 33 1009.5
20260509212003 60 291 10.4 21.7 0.00 0.00 0.00 33 1009.6
20260509211003 61 313 9.6 20.9 0.00 0.00 0.00 34 1009.6
20260509210004 60 332 9.6 20.0 0.00 0.00 0.00 33 1009.3
20260509205003 59 320 9.6 19.1 0.00 0.00 0.00 38 1009.3
20260509204003 59 302 8.7 18.2 0.00 0.00 0.00 38 1009.0
20260509203003 59 313 10.4 24.3 0.00 0.00 0.00 39 1009.0
20260509202003 59 332 10.4 18.2 0.00 0.00 0.00 39 1008.9
20260509200003 59 298 6.1 19.1 0.00 0.00 0.00 40 1008.6
20260509195003 60 297 11.3 22.6 0.00 0.00 0.00 41 1008.6
20260509194003 60 341 7.8 21.7 0.00 0.00 0.00 42 1008.5
20260509193003 60 308 7.8 21.7 0.00 0.00 0.00 42 1008.3
20260509191003 58 289 7.8 18.2 0.00 0.00 0.00 46 1008.4
20260509190003 59 287 11.3 17.4 0.00 0.00 0.00 45 1008.1
20260509184003 58 280 8.7 19.1 0.00 0.00 0.00 47 1008.1
20260509183003 60 282 5.2 22.6 0.00 0.00 0.00 48 1007.7
20260509181003 58 324 6.1 17.4 0.00 0.00 0.00 52 1007.7
20260509180003 57 254 6.1 21.7 0.00 0.00 0.00 53 1007.5
20260509175003 59 264 7.8 14.8 0.00 0.00 0.00 51 1007.7
20260509174003 57 308 7.8 14.8 0.00 0.00 0.00 55 1007.8
20260509173003 58 289 11.3 20.9 0.00 0.00 0.00 57 1007.5
20260509172003 57 232 7.8 22.6 0.00 0.00 0.00 57 1007.5
20260509171003 56 234 7.8 20.0 0.00 0.00 0.00 59 1007.6
20260509170003 55 302 7.8 20.0 0.00 0.00 0.00 61 1007.6
20260509165003 55 260 9.6 19.1 0.00 0.00 0.00 61 1007.4
20260509163003 54 297 8.7 18.2 0.00 0.00 0.00 61 1007.2
20260509161003 54 274 5.2 18.2 0.00 0.00 0.00 61 1007.4
20260509160003 53 297 10.4 17.4 0.00 0.00 0.00 62 1007.4
20260509155003 53 294 7.0 15.6 0.00 0.00 0.00 62 1007.0
20260509154003 53 288 7.0 15.6 0.00 0.00 0.00 60 1007.1
20260509153004 53 306 3.5 13.0 0.00 0.00 0.00 61 1007.0
20260509152003 53 318 6.1 14.8 0.00 0.00 0.00 57 1006.7
20260509151004 54 318 4.3 11.3 0.00 0.00 0.00 51 1006.8
20260509150003 54 16 3.5 12.2 0.00 0.00 0.00 51 1006.7
20260509145003 54 314 4.3 12.2 0.00 0.00 0.00 51 1006.5
20260509144003 53 245 4.3 8.7 0.00 0.00 0.00 51 1006.8
20260509143003 53 287 6.1 11.3 0.00 0.00 0.00 50 1006.6
20260509142003 53 295 4.3 7.8 0.00 0.00 0.00 50 1006.7
20260509140003 53 271 2.6 12.2 0.00 0.00 0.00 51 1006.5
20260509135003 53 277 1.7 13.9 0.00 0.00 0.00 51 1006.5
20260509134003 53 266 5.2 10.4 0.00 0.00 0.00 51 1006.1
20260509133004 53 354 2.6 7.0 0.00 0.00 0.00 53 1006.2
20260509132003 53 266 4.3 8.7 0.00 0.00 0.00 54 1005.9
20260509131003 52 249 2.6 5.2 0.00 0.00 0.00 54 1005.7
20260509130002 52 191 3.5 7.0 0.00 0.00 0.00 54 1005.5
20260509125003 52 222 2.6 5.2 0.00 0.00 0.00 54 1005.4
20260509123003 52 195 1.7 5.2 0.00 0.00 0.00 56 1005.0
20260509122003 52 191 2.6 4.3 0.00 0.00 0.00 56 1005.1
20260509121003 52 144 2.6 4.3 0.00 0.00 0.00 56 1004.4
20260509120003 52 79 2.6 4.3 0.00 0.00 0.00 56 1003.9
20260509115003 52 225 1.7 5.2 0.00 0.00 0.00 56 1004.2
20260509114003 52 240 1.7 7.0 0.00 0.00 0.00 56 1003.9
20260509113003 52 276 3.5 7.8 0.00 0.00 0.00 56 1003.8
20260509112003 52 180 1.7 5.2 0.00 0.00 0.00 58 1003.7
20260509111003 51 352 2.6 6.1 0.00 0.00 0.00 59 1003.3
20260509110003 51 18 1.7 5.2 0.00 0.00 0.00 64 1003.3
20260509105003 51 187 2.6 6.1 0.00 0.00 0.00 65 1003.1
20260509104003 51 146 2.6 8.7 0.00 0.00 0.00 68 1002.9
20260509103003 51 217 3.5 7.0 0.00 0.00 0.00 70 1002.7
20260509102003 51 173 3.5 5.2 0.00 0.00 0.00 72 1002.6
20260509101004 51 187 1.7 7.0 0.00 0.00 0.00 74 1002.7
20260509100003 51 180 2.6 7.0 0.00 0.00 0.00 73 1002.8
20260509095003 51 206 3.5 7.8 0.00 0.00 0.00 72 1002.9
20260509094003 51 193 4.3 7.0 0.00 0.00 0.00 72 1002.2
20260509092003 52 151 3.5 6.1 0.00 0.00 0.00 70 1002.4
20260509091003 52 185 3.5 5.2 0.00 0.00 0.00 69 1002.6
20260509085003 52 174 4.3 6.1 0.00 0.00 0.00 68 1002.6
20260509084003 51 158 1.7 4.3 0.00 0.00 0.00 68 1002.7
20260509083003 50 124 2.6 4.3 0.00 0.00 0.00 68 1002.7
20260509082003 50 110 2.6 2.6 0.00 0.00 0.00 68 1002.9
20260509081004 50 104 2.6 4.3 0.00 0.00 0.00 67 1003.0
20260509080003 51 119 2.6 5.2 0.00 0.00 0.00 66 1002.9